This is the latest recevied weather packets stored in our database for station/object SQ2CET-13. If no packets are shown the sender has not sent any weather packets the latest 10 day(s).
| Time | Temp. | Humidity | Pressure | Rain* | Wind** | Luminosity | Snow |
|---|---|---|---|---|---|---|---|
| 1777602076 | 3.89° C | 89% | 1028.9 hPa | 0 mm | - | 0 W/m² | - |
| 1777599644 | 3.89° C | 88% | 1028.7 hPa | 0 mm | - | 0 W/m² | - |
| 1777599068 | 3.89° C | 88% | 1028.8 hPa | 0 mm | - | 0 W/m² | - |
| 1777598428 | 3.89° C | 87% | 1028.8 hPa | 0 mm | - | 0 W/m² | - |
| 1777596637 | 4.44° C | 86% | 1028.5 hPa | 0 mm | - | 0 W/m² | - |
| 1777593052 | 5° C | 83% | 1028.5 hPa | 0 mm | - | 0 W/m² | - |
| 1777590044 | 5° C | 81% | 1028.6 hPa | 0 mm | - | 0 W/m² | - |
| 1777588829 | 5.56° C | 81% | 1028.7 hPa | 0 mm | - | 0 W/m² | - |
| 1777588252 | 5.56° C | 79% | 1028.8 hPa | 0 mm | - | 0 W/m² | - |
| 1777587056 | 6.67° C | 75% | 1028.6 hPa | 0 mm | - | 0 W/m² | - |
| 1777583452 | 6.11° C | 74% | 1028.6 hPa | 0 mm | - | 0 W/m² | - |
| 1777582876 | 6.11° C | 74% | 1028.6 hPa | 0 mm | - | 0 W/m² | - |
| 1777578644 | 8.89° C | 67% | 1028.6 hPa | 0 mm | - | 0 W/m² | - |
| 1777575061 | 10° C | 63% | 1028.6 hPa | 0 mm | - | 0 W/m² | - |
| 1777574481 | 10.56° C | 60% | 1028.5 hPa | 0 mm | - | 0 W/m² | - |
| 1777572621 | 12.22° C | 52% | 1028.4 hPa | 0 mm | - | 4 W/m² | - |
| 1777570825 | 12.78° C | 50% | 1028.4 hPa | 0 mm | - | 15 W/m² | - |
| 1777569029 | 14.44° C | 43% | 1028.5 hPa | 0 mm | - | 31 W/m² | - |
| 1777565429 | 15.56° C | 39% | 1028.6 hPa | 0 mm | - | 125 W/m² | - |
| 1777564281 | 16.67° C | 37% | 1028.6 hPa | 0 mm | - | 63 W/m² | - |
| 1777561829 | 15.56° C | 34% | 1028.7 hPa | 0 mm | - | 260 W/m² | - |
| 1777560028 | 15° C | 35% | 1029.2 hPa | 0 mm | - | 212 W/m² | - |
| 1777557646 | 14.44° C | 27% | 1029.1 hPa | 0 mm | - | 235 W/m² | - |
| 1777557069 | 14.44° C | 28% | 1029.2 hPa | 0 mm | - | 225 W/m² | - |
| 1777552837 | 15.56° C | 44% | 1029.5 hPa | 0 mm | - | 234 W/m² | - |
* Rain latest hour (hover to see other rain measurements)
** Current wind speed in m/s (hover to see current wind gust speed)